This demonstration page uses our WeatherBlox Daily Observations layout. Learn more.

Left ArrowRight Arrow

Hourly Observations for November 1, 2020

Temp ( °F °C ) Dew Point ( °F °C ) Humidity (%) Winds ( mph kmh ) Pressure ( in mb ) Visibility ( mi km ) Precip ( " mm )
12:53 am 00:53 Clear 46 7.8 39 3.9 77 77 Calm 30.06 1018 10 16 0.00 0.00
1:53 am 01:53 Clear 48 8.9 39 3.9 71 71 Calm 30.04 1017 10 16 0.00 0.00
1:53 am 01:53 Clear 52 11.1 41 5 66 66 VRB 7 11 30.02 1017 10 16 0.00 0.00
2:53 am 02:53 Mostly Cloudy 54 12.2 44 6.7 69 69 SSW 8 13 30.00 1016 10 16 0.00 0.00
3:53 am 03:53 Clear 53 11.7 44 6.7 72 72 SW 8 13 29.97 1015 10 16 0.00 0.00
4:53 am 04:53 Partly Cloudy 54 12.2 45 7.2 72 72 SW 9 15 29.94 1014 10 16 0.00 0.00
5:53 am 05:53 Cloudy 54 12.2 45 7.2 72 72 WSW 9 15 29.95 1014 10 16 0.00 0.00
6:53 am 06:53 Cloudy 54 12.2 43 6.1 67 67 WSW 13 20 29.96 1015 10 16 0.00 0.00
7:53 am 07:53 Mostly Cloudy 52 11.1 39 3.9 61 61 W 13 20 29.98 1015 10 16 0.00 0.00
8:53 am 08:53 Sunny 52 11.1 31 -0.6 45 45 W 12 19 30.02 1017 10 16 0.00 0.00
9:53 am 09:53 Sunny 52 11.1 29 -1.7 41 41 W 13 20 30.04 1017 10 16 0.00 0.00
10:53 am 10:53 Sunny 51 10.6 27 -2.8 39 39 W 14 22 30.06 1018 10 16 0.00 0.00
11:53 am 11:53 Sunny with Light Rain 52 11.1 27 -2.8 38 38 W 21 33 30.08 1019 10 16 0.00 0.00
12:53 pm 12:53 Partly Cloudy with Light Rain 51 10.6 26 -3.3 38 38 W 18 30 30.10 1019 10 16 0.00 0.00
1:53 pm 13:53 Partly Cloudy 48 8.9 25 -3.9 41 41 WNW 28 44 30.14 1021 10 16 0.00 0.00
2:53 pm 14:53 Partly Cloudy with Light Rain 46 7.8 25 -3.9 44 44 NW 26 43 30.17 1022 10 16 0.00 0.00
3:53 pm 15:53 Cloudy 42 5.6 24 -4.4 49 49 WNW 20 31 30.23 1024 10 16 0.00 0.00
4:53 pm 16:53 Cloudy with Light Rain 40 4.4 21 -6.1 47 47 WNW 23 37 30.27 1025 10 16 0.00 0.00
5:53 pm 17:53 Cloudy 39 3.9 21 -6.1 48 48 NW 14 22 30.29 1026 10 16 0.00 0.00
6:53 pm 18:53 Cloudy 39 3.9 20 -6.7 46 46 WNW 15 24 30.32 1027 10 16 0.00 0.00
7:53 pm 19:53 Cloudy 39 3.9 21 -6.1 48 48 NW 14 22 30.35 1028 10 16 0.00 0.00
8:53 pm 20:53 Cloudy 38 3.3 21 -6.1 51 51 WNW 10 17 30.36 1028 10 16 0.00 0.00
9:53 pm 21:53 Mostly Clear 36 2.2 20 -6.7 52 52 WNW 7 11 30.37 1029 10 16 0.00 0.00
10:53 pm 22:53 Clear 34 1.1 21 -6.1 59 59 VRB 6 9 30.38 1029 10 16 0.00 0.00
11:53 pm 23:53 Clear 32 0 21 -6.1 64 64 W 6 9 30.37 1029 10 16 0.00 0.00

Powered by AerisWeather